| time (UTC) | temp C | wind direction | speed KPH | gust KPH | rain 1hr cm | rain 24hr cm | rain mn cm | humidity % | barometer mb |
| 20260504050504 | 11 | 289 | 1.6 | 4.8 | 0.00 | 0.08 | 0.00 | 96 | 1012.2 |
| 20260504050004 | 11 | 289 | 0.0 | 1.6 | 0.00 | 0.08 | 0.00 | 96 | 1012.2 |
| 20260504045503 | 11 | 289 | 0.0 | 0.0 | 0.00 | 0.08 | 0.00 | 96 | 1012.2 |
| 20260504045003 | 11 | 289 | 0.0 | 1.6 | 0.00 | 0.08 | 0.00 | 96 | 1012.2 |
| 20260504044512 | 11 | 289 | 0.0 | 1.6 | 0.00 | 0.08 | 0.00 | 96 | 1012.2 |
| 20260504044005 | 11 | 289 | 0.0 | 3.2 | 0.00 | 0.08 | 0.00 | 96 | 1012.4 |
| 20260504043503 | 11 | 289 | 0.0 | 3.2 | 0.00 | 0.08 | 0.00 | 96 | 1012.5 |
| 20260504043012 | 12 | 289 | 0.0 | 6.4 | 0.00 | 0.08 | 0.00 | 96 | 1012.4 |
| 20260504042507 | 12 | 289 | 0.0 | 6.4 | 0.00 | 0.08 | 0.00 | 96 | 1012.4 |
| 20260504042006 | 12 | 281 | 0.0 | 4.8 | 0.00 | 0.08 | 0.00 | 96 | 1012.5 |
| 20260504041511 | 12 | 281 | 0.0 | 6.4 | 0.00 | 0.08 | 0.00 | 96 | 1012.6 |
| 20260504041003 | 12 | 300 | 0.0 | 6.4 | 0.00 | 0.08 | 0.00 | 96 | 1012.6 |
| 20260504040509 | 12 | 292 | 0.0 | 4.8 | 0.00 | 0.08 | 0.00 | 96 | 1012.7 |
| 20260504040022 | 12 | 281 | 0.0 | 11.3 | 0.00 | 0.08 | 0.00 | 96 | 1012.6 |
| 20260504035505 | 12 | 297 | 1.6 | 12.9 | 0.00 | 0.08 | 0.00 | 96 | 1012.7 |
| 20260504035003 | 12 | 284 | 4.8 | 12.9 | 0.00 | 0.08 | 0.00 | 96 | 1012.8 |
| 20260504034503 | 12 | 306 | 4.8 | 12.9 | 0.00 | 0.08 | 0.00 | 96 | 1012.7 |
| 20260504034003 | 12 | 269 | 0.0 | 8.0 | 0.00 | 0.08 | 0.00 | 97 | 1012.7 |
| 20260504033503 | 12 | 305 | 0.0 | 4.8 | 0.00 | 0.08 | 0.00 | 97 | 1012.7 |
| 20260504033007 | 12 | 305 | 0.0 | 6.4 | 0.00 | 0.08 | 0.00 | 97 | 1012.6 |
| 20260504032503 | 12 | 305 | 0.0 | 11.3 | 0.00 | 0.08 | 0.00 | 97 | 1012.5 |
| 20260504032003 | 12 | 323 | 4.8 | 14.5 | 0.00 | 0.08 | 0.00 | 97 | 1012.5 |
| 20260504031514 | 12 | 296 | 3.2 | 16.1 | 0.00 | 0.08 | 0.00 | 97 | 1012.6 |
| 20260504031005 | 12 | 277 | 8.0 | 20.9 | 0.00 | 0.08 | 0.00 | 97 | 1012.7 |
| 20260504030505 | 12 | 287 | 11.3 | 20.9 | 0.00 | 0.08 | 0.00 | 97 | 1012.6 |
| 20260504030009 | 13 | 246 | 3.2 | 11.3 | 0.00 | 0.08 | 0.00 | 97 | 1012.5 |
| 20260504025507 | 13 | 302 | 3.2 | 9.7 | 0.00 | 0.08 | 0.00 | 97 | 1012.5 |
| 20260504025007 | 13 | 271 | 0.0 | 6.4 | 0.00 | 0.08 | 0.00 | 97 | 1012.5 |
| 20260504024507 | 12 | 274 | 1.6 | 6.4 | 0.00 | 0.08 | 0.00 | 97 | 1012.5 |
| 20260504024006 | 12 | 289 | 0.0 | 1.6 | 0.00 | 0.08 | 0.00 | 97 | 1012.5 |
| 20260504023506 | 12 | 289 | 0.0 | 3.2 | 0.00 | 0.08 | 0.00 | 97 | 1012.4 |
| 20260504023006 | 12 | 289 | 0.0 | 3.2 | 0.00 | 0.08 | 0.00 | 97 | 1012.2 |
| 20260504022504 | 12 | 289 | 0.0 | 1.6 | 0.00 | 0.08 | 0.00 | 97 | 1012.1 |
| 20260504022007 | 12 | 289 | 0.0 | 1.6 | 0.00 | 0.08 | 0.00 | 97 | 1012.0 |
| 20260504021509 | 12 | 289 | 0.0 | 1.6 | 0.00 | 0.08 | 0.00 | 97 | 1012.0 |
| 20260504021003 | 12 | 289 | 0.0 | 1.6 | 0.00 | 0.08 | 0.00 | 97 | 1011.9 |
| 20260504020506 | 12 | 289 | 0.0 | 3.2 | 0.00 | 0.08 | 0.00 | 97 | 1011.8 |
| 20260504020028 | 12 | 289 | 0.0 | 3.2 | 0.00 | 0.08 | 0.00 | 97 | 1011.8 |
| 20260504015505 | 12 | 289 | 0.0 | 3.2 | 0.00 | 0.08 | 0.00 | 96 | 1011.8 |
| 20260504015005 | 12 | 289 | 0.0 | 4.8 | 0.00 | 0.08 | 0.00 | 97 | 1011.8 |
| 20260504014520 | 12 | 288 | 0.0 | 4.8 | 0.00 | 0.08 | 0.00 | 97 | 1011.9 |
| 20260504014009 | 12 | 77 | 0.0 | 0.0 | 0.00 | 0.08 | 0.00 | 97 | 1011.6 |
| 20260504013513 | 12 | 77 | 0.0 | 0.0 | 0.00 | 0.08 | 0.00 | 96 | 1011.5 |
| 20260504013012 | 12 | 77 | 0.0 | 0.0 | 0.00 | 0.08 | 0.00 | 96 | 1011.6 |
| 20260504012510 | 12 | 77 | 0.0 | 0.0 | 0.00 | 0.08 | 0.00 | 96 | 1011.6 |
| 20260504012011 | 12 | 77 | 0.0 | 0.0 | 0.00 | 0.08 | 0.00 | 96 | 1011.5 |
| 20260504011509 | 12 | 77 | 0.0 | 0.0 | 0.00 | 0.05 | 0.00 | 96 | 1011.5 |
| 20260504011005 | 12 | 77 | 0.0 | 0.0 | 0.00 | 0.05 | 0.00 | 96 | 1011.5 |
| 20260504010509 | 12 | 77 | 0.0 | 0.0 | 0.00 | 0.05 | 0.00 | 96 | 1011.5 |
| 20260504010014 | 12 | 77 | 0.0 | 0.0 | 0.00 | 0.05 | 0.00 | 96 | 1011.5 |
| 20260504005507 | 12 | 77 | 0.0 | 0.0 | 0.00 | 0.05 | 0.00 | 96 | 1011.4 |
| 20260504005007 | 12 | 77 | 0.0 | 1.6 | 0.00 | 0.05 | 0.00 | 96 | 1011.5 |
| 20260504004520 | 12 | 77 | 0.0 | 1.6 | 0.00 | 0.05 | 0.00 | 96 | 1011.5 |
| 20260504004007 | 12 | 77 | 0.0 | 0.0 | 0.00 | 0.05 | 0.00 | 96 | 1011.6 |
| 20260504003508 | 12 | 77 | 0.0 | 0.0 | 0.00 | 0.05 | 0.00 | 96 | 1011.6 |
| 20260504003023 | 12 | 77 | 0.0 | 0.0 | 0.00 | 0.05 | 0.00 | 96 | 1011.6 |
| 20260504002508 | 12 | 77 | 0.0 | 0.0 | 0.00 | 0.05 | 0.00 | 96 | 1011.6 |
| 20260504002003 | 12 | 77 | 0.0 | 0.0 | 0.00 | 0.05 | 0.00 | 96 | 1011.6 |
| 20260504001525 | 12 | 77 | 0.0 | 0.0 | 0.00 | 0.05 | 0.00 | 96 | 1011.6 |
| 20260504001008 | 12 | 77 | 0.0 | 0.0 | 0.00 | 0.05 | 0.00 | 96 | 1011.7 |
| 20260504000509 | 12 | 77 | 0.0 | 0.0 | 0.00 | 0.05 | 0.00 | 96 | 1011.7 |
| 20260504000012 | 12 | 77 | 0.0 | 0.0 | 0.00 | 0.05 | 0.00 | 96 | 1011.7 |
| 20260503235503 | 12 | 77 | 0.0 | 0.0 | 0.00 | 0.05 | 0.00 | 95 | 1011.8 |
| 20260503235006 | 12 | 77 | 0.0 | 0.0 | 0.00 | 0.05 | 0.00 | 95 | 1011.8 |
| 20260503234515 | 12 | 77 | 0.0 | 0.0 | 0.00 | 0.05 | 0.00 | 95 | 1011.7 |
| 20260503234007 | 12 | 77 | 0.0 | 0.0 | 0.00 | 0.05 | 0.00 | 95 | 1011.8 |
| 20260503233503 | 12 | 77 | 0.0 | 1.6 | 0.00 | 0.05 | 0.00 | 95 | 1011.8 |
| 20260503233018 | 12 | 77 | 0.0 | 1.6 | 0.00 | 0.05 | 0.00 | 95 | 1011.7 |
| 20260503232509 | 12 | 77 | 0.0 | 0.0 | 0.00 | 0.05 | 0.00 | 95 | 1011.7 |
| 20260503232006 | 13 | 77 | 0.0 | 0.0 | 0.00 | 0.05 | 0.00 | 95 | 1011.8 |
| 20260503231505 | 13 | 77 | 0.0 | 0.0 | 0.00 | 0.05 | 0.00 | 94 | 1011.8 |
| 20260503231003 | 13 | 77 | 0.0 | 0.0 | 0.00 | 0.05 | 0.00 | 94 | 1011.9 |
| 20260503230507 | 13 | 77 | 0.0 | 0.0 | 0.00 | 0.05 | 0.00 | 95 | 1011.9 |
| 20260503230037 | 13 | 77 | 0.0 | 0.0 | 0.00 | 0.05 | 0.00 | 95 | 1011.9 |
| 20260503225504 | 13 | 77 | 0.0 | 0.0 | 0.00 | 0.05 | 0.00 | 94 | 1011.9 |
| 20260503225003 | 13 | 77 | 0.0 | 0.0 | 0.00 | 0.05 | 0.00 | 95 | 1011.9 |
| 20260503224522 | 13 | 77 | 0.0 | 0.0 | 0.00 | 0.05 | 0.00 | 95 | 1012.0 |
| 20260503224005 | 13 | 77 | 0.0 | 0.0 | 0.00 | 0.05 | 0.00 | 94 | 1012.0 |
| 20260503223507 | 13 | 77 | 0.0 | 0.0 | 0.00 | 0.05 | 0.00 | 94 | 1012.1 |
| 20260503223020 | 13 | 77 | 0.0 | 0.0 | 0.00 | 0.05 | 0.00 | 94 | 1012.1 |
| 20260503222506 | 13 | 77 | 0.0 | 0.0 | 0.00 | 0.05 | 0.00 | 94 | 1012.1 |
| 20260503222004 | 13 | 77 | 0.0 | 0.0 | 0.00 | 0.08 | 0.00 | 94 | 1012.1 |
| 20260503221525 | 13 | 77 | 0.0 | 1.6 | 0.00 | 0.08 | 0.00 | 94 | 1012.1 |
| 20260503221011 | 13 | 77 | 0.0 | 1.6 | 0.00 | 0.08 | 0.00 | 93 | 1012.2 |
| 20260503220506 | 13 | 77 | 0.0 | 1.6 | 0.00 | 0.08 | 0.00 | 93 | 1012.1 |
| 20260503220014 | 13 | 77 | 0.0 | 3.2 | 0.00 | 0.08 | 0.00 | 93 | 1012.0 |
| 20260503215502 | 13 | 77 | 0.0 | 3.2 | 0.00 | 0.08 | 0.08 | 93 | 1012.1 |
| 20260503215004 | 13 | 77 | 0.0 | 4.8 | 0.00 | 0.08 | 0.08 | 93 | 1012.1 |
| 20260503214526 | 13 | 77 | 0.0 | 4.8 | 0.00 | 0.08 | 0.08 | 93 | 1012.1 |
| 20260503214010 | 14 | 76 | 0.0 | 3.2 | 0.00 | 0.08 | 0.08 | 93 | 1012.1 |
| 20260503213504 | 14 | 76 | 0.0 | 1.6 | 0.00 | 0.08 | 0.08 | 93 | 1012.2 |
| 20260503213027 | 14 | 76 | 0.0 | 0.0 | 0.00 | 0.08 | 0.08 | 93 | 1012.4 |
| 20260503212508 | 14 | 76 | 0.0 | 0.0 | 0.00 | 0.08 | 0.08 | 93 | 1012.5 |
| 20260503212009 | 14 | 76 | 0.0 | 0.0 | 0.00 | 0.08 | 0.08 | 93 | 1012.5 |
| 20260503211523 | 14 | 76 | 0.0 | 0.0 | 0.00 | 0.08 | 0.08 | 93 | 1012.6 |
| 20260503211005 | 14 | 76 | 0.0 | 0.0 | 0.00 | 0.08 | 0.08 | 93 | 1012.7 |
| 20260503210507 | 14 | 76 | 0.0 | 1.6 | 0.00 | 0.08 | 0.08 | 93 | 1012.7 |
| 20260503210024 | 14 | 76 | 0.0 | 1.6 | 0.00 | 0.08 | 0.08 | 92 | 1012.8 |
| 20260503205507 | 14 | 76 | 0.0 | 0.0 | 0.00 | 0.08 | 0.08 | 92 | 1012.9 |
| 20260503205006 | 14 | 76 | 0.0 | 0.0 | 0.00 | 0.18 | 0.08 | 92 | 1012.9 |
| 20260503204520 | 14 | 76 | 0.0 | 0.0 | 0.00 | 0.36 | 0.08 | 91 | 1012.9 |
| 20260503204005 | 14 | 76 | 0.0 | 0.0 | 0.00 | 0.58 | 0.08 | 92 | 1012.9 |
| 20260503203505 | 14 | 76 | 0.0 | 0.0 | 0.00 | 0.94 | 0.08 | 91 | 1012.9 |
| 20260503203015 | 14 | 76 | 0.0 | 0.0 | 0.00 | 1.02 | 0.08 | 91 | 1012.9 |
| 20260503202506 | 14 | 76 | 0.0 | 1.6 | 0.00 | 1.02 | 0.08 | 92 | 1012.8 |
| 20260503202013 | 14 | 76 | 0.0 | 1.6 | 0.00 | 1.02 | 0.08 | 92 | 1012.6 |
| 20260503201519 | 14 | 76 | 0.0 | 1.6 | 0.00 | 1.04 | 0.08 | 92 | 1012.5 |
| 20260503201006 | 14 | 76 | 0.0 | 1.6 | 0.00 | 1.04 | 0.08 | 92 | 1012.6 |
| 20260503200509 | 14 | 76 | 0.0 | 1.6 | 0.00 | 1.07 | 0.08 | 92 | 1012.6 |
| 20260503200029 | 14 | 76 | 0.0 | 0.0 | 0.00 | 1.09 | 0.08 | 91 | 1012.6 |
| 20260503195505 | 14 | 75 | 0.0 | 0.0 | 0.00 | 1.09 | 0.08 | 91 | 1012.6 |
| 20260503195008 | 14 | 76 | 0.0 | 3.2 | 0.00 | 1.09 | 0.08 | 91 | 1012.6 |
| 20260503194526 | 14 | 76 | 0.0 | 3.2 | 0.00 | 1.12 | 0.08 | 91 | 1012.5 |
| 20260503194008 | 15 | 76 | 0.0 | 1.6 | 0.00 | 1.12 | 0.08 | 91 | 1012.5 |
| 20260503193509 | 15 | 76 | 0.0 | 1.6 | 0.00 | 1.12 | 0.08 | 91 | 1012.4 |
| 20260503193041 | 15 | 74 | 0.0 | 1.6 | 0.00 | 1.14 | 0.08 | 91 | 1012.4 |
| 20260503192505 | 15 | 65 | 0.0 | 4.8 | 0.00 | 1.17 | 0.08 | 91 | 1012.3 |
| 20260503192007 | 15 | 65 | 1.6 | 4.8 | 0.00 | 1.17 | 0.08 | 91 | 1012.1 |
| 20260503191533 | 15 | 130 | 0.0 | 3.2 | 0.00 | 1.19 | 0.08 | 90 | 1012.1 |
| 20260503191010 | 15 | 130 | 0.0 | 3.2 | 0.00 | 1.19 | 0.08 | 90 | 1012.1 |
| 20260503190505 | 15 | 130 | 0.0 | 0.0 | 0.00 | 1.22 | 0.08 | 89 | 1012.0 |
| 20260503190031 | 15 | 130 | 0.0 | 1.6 | 0.00 | 1.22 | 0.08 | 89 | 1012.0 |
| 20260503185507 | 15 | 130 | 0.0 | 4.8 | 0.00 | 1.22 | 0.08 | 89 | 1011.9 |
| 20260503185009 | 15 | 130 | 0.0 | 6.4 | 0.00 | 1.22 | 0.08 | 89 | 1011.8 |
| 20260503184520 | 15 | 81 | 1.6 | 6.4 | 0.00 | 1.22 | 0.08 | 89 | 1011.7 |
| 20260503184010 | 15 | 107 | 1.6 | 6.4 | 0.00 | 1.24 | 0.08 | 88 | 1011.8 |
| 20260503183510 | 15 | 25 | 0.0 | 4.8 | 0.00 | 1.24 | 0.08 | 88 | 1011.7 |
| 20260503183015 | 15 | 279 | 0.0 | 3.2 | 0.00 | 1.24 | 0.08 | 87 | 1011.6 |
| 20260503182505 | 15 | 279 | 0.0 | 3.2 | 0.00 | 1.24 | 0.08 | 87 | 1011.6 |
| 20260503182010 | 15 | 279 | 0.0 | 4.8 | 0.00 | 1.24 | 0.08 | 87 | 1011.6 |
| 20260503181539 | 15 | 279 | 0.0 | 4.8 | 0.00 | 1.24 | 0.08 | 87 | 1011.5 |
| 20260503181008 | 15 | 279 | 0.0 | 3.2 | 0.00 | 1.24 | 0.08 | 87 | 1011.6 |
| 20260503180507 | 15 | 279 | 0.0 | 4.8 | 0.00 | 1.24 | 0.08 | 86 | 1011.5 |
| 20260503180027 | 15 | 279 | 0.0 | 6.4 | 0.00 | 1.24 | 0.08 | 86 | 1011.6 |
| 20260503175507 | 15 | 279 | 1.6 | 6.4 | 0.00 | 1.24 | 0.08 | 87 | 1011.5 |
| 20260503175008 | 15 | 308 | 0.0 | 6.4 | 0.00 | 1.24 | 0.08 | 87 | 1011.5 |
| 20260503174522 | 15 | 308 | 1.6 | 6.4 | 0.00 | 1.24 | 0.08 | 86 | 1011.5 |
| 20260503174012 | 15 | 308 | 1.6 | 8.0 | 0.00 | 1.24 | 0.08 | 86 | 1011.5 |
| 20260503173506 | 15 | 308 | 0.0 | 8.0 | 0.00 | 1.22 | 0.05 | 87 | 1011.4 |
| 20260503173026 | 15 | 312 | 3.2 | 9.7 | 0.00 | 1.22 | 0.05 | 86 | 1011.3 |
| 20260503172510 | 15 | 312 | 3.2 | 9.7 | 0.00 | 1.22 | 0.05 | 86 | 1011.3 |
| 20260503172015 | 15 | 2 | 0.0 | 9.7 | 0.00 | 1.22 | 0.05 | 87 | 1011.3 |
| 20260503171523 | 15 | 352 | 3.2 | 9.7 | 0.00 | 1.22 | 0.05 | 86 | 1011.4 |
| 20260503171009 | 15 | 335 | 3.2 | 8.0 | 0.00 | 1.22 | 0.05 | 87 | 1011.4 |
| 20260503170510 | 15 | 356 | 3.2 | 8.0 | 0.00 | 1.22 | 0.05 | 88 | 1011.5 |
| 20260503151007 | 15 | 333 | 0.0 | 8.0 | 0.00 | 1.45 | 0.00 | 85 | 1011.7 |
| 20260503150503 | 16 | 40 | 3.2 | 14.5 | 0.00 | 1.57 | 0.00 | 82 | 1011.7 |
| 20260503131006 | 20 | 119 | 8.0 | 16.1 | 0.00 | 1.57 | 0.00 | 72 | 1012.5 |
| 20260503130504 | 20 | 89 | 6.4 | 14.5 | 0.00 | 1.57 | 0.00 | 73 | 1012.6 |
| 20260503110508 | 20 | 100 | 4.8 | 19.3 | 0.00 | 1.57 | 0.00 | 71 | 1013.9 |
| 20260503090508 | 16 | 267 | 0.0 | 8.0 | 0.00 | 1.57 | 0.00 | 84 | 1014.9 |
| 20260503081514 | 16 | 260 | 0.0 | 3.2 | 0.00 | 1.57 | 0.00 | 83 | 1014.5 |
| 20260503081007 | 16 | 260 | 0.0 | 1.6 | 0.00 | 1.57 | 0.00 | 83 | 1014.4 |
| 20260503080505 | 16 | 260 | 0.0 | 4.8 | 0.00 | 1.57 | 0.00 | 83 | 1014.5 |